STARLINK-11499 [DTC] (62279 NORAD) Tracking and Keplerian Element Data

This shows tracking and keplerian element data for the satellite.

Feedback or suggestion? Click here.




ElementValue
Catalog62279
NameSTARLINK-11499 [DTC]
Epoch Orbit1029
Epoch Day35.07825075
Epoch Year2025
RAAN299.9684
Inclination43
Eccentricity0.000114
Argument of Perigee286.5512
Mean Anonmoly73.5231
Mean Motion15.70827547
Decay Rate5.11E-06
L11 62279U 24237N 25035.07825075 .00000511 00000+0 74798-5 0 9999
L22 62279 43.0000 299.9684 0001140 286.5512 73.5231 15.70827547 10296



Live tracking and technical data element details for STARLINK-11499 [DTC] (NORAD 62279). STARLINK-11499 [DTC] can be tracked NOW for your location showing map with azimuth and elevation plus other details from your city location.







IsCatalogInMostPopularTable: catalog: 62279, numindb: 11
Update: records affected: 1



GetName: 62279 STARLINK-11499 [DTC]

Hit Count: updated at: Sat, 24 May 2025 17:14:48 GMT